Tracking 19485 objects as of 22-Jan-2019
HD Live streaming from Space Station
objects crossing your sky now

SYMPHONIE 1

Track SYMPHONIE 1 now!
SYMPHONIE 1 is classified as:


NORAD ID: 7578
Int'l Code: 1974-101A
Perigee: 35,854.6 km
Apogee: 35,906.3 km
Inclination: 11.0 °
Period: 1,440.5 minutes
Semi major axis: 42251 km
RCS: 1.2872 m2 (large)
Launch date: December 19, 1974
Source: France/Germany (FGER)
Launch site: AIR FORCE EASTERN TEST RANGE (AFETR)
aabbcc
Your satellite tracking list
Your tracking list is empty




NASA's NSSDC Master Catalog

Two Line Element Set (TLE):
1  7578U 74101A   19021.67318375 -.00000283  00000-0  00000+0 0  9996
2  7578  11.0140 311.0636 0006121 342.9395 214.1027  0.99963386 90606
Source of the keplerian elements: AFSPC